Location: Pensacola
(30.4142°N, 87.2155°W)
Time: 23:54:16
(UTC-05:00)

Tiangong 1 - Visible Passes

Search period start: 23 September 2017 00:00
Search period end: 03 October 2017 00:00
Orbit: 303 x 328 km, 42.8° (Epoch: 23 September)

Date Brightness Start Highest point End Pass type
(mag) Time Alt. Az. Time Alt. Az. Time Alt. Az.
24 Sep 3.4 05:09:37 13° N 05:10:13 14° NNE 05:11:45 10° ENE visible
25 Sep 2.5 05:22:51 21° N 05:23:49 28° NNE 05:26:10 10° E visible
26 Sep 0.6 05:36:08 32° NW 05:37:10 82° NNE 05:39:50 10° ESE visible
27 Sep 1.7 05:49:29 22° WSW 05:50:20 27° SW 05:52:39 10° SSE visible
30 Sep 3.0 19:32:42 10° S 19:33:23 12° SSE 19:33:23 12° SSE visible
01 Oct 1.5 19:44:14 10° SW 19:46:22 36° S 19:46:22 36° S visible
02 Oct 1.4 19:56:48 10° WSW 19:59:06 51° WNW 19:59:06 51° WNW visible
